QPF
0.00 0.00 0.00 0.00 0.01 0.01 0.02 0.02 0.04 0.04 0.04 0.03 0.03 0.04 0.03 0.02 0.02 0.02 0.03 0.06 0.07 0.06 0.05 0.05 0.04 0.04 0.04 0.05 0.06 0.06 0.05 0.05 0.05 0.06 0.07 0.07 0.07 0.06 0.04 0.04 0.06 0.08 0.11
0.00 0.00 0.00 0.00 0.00 0.00 0.01 0.02 0.02 0.03 0.03 0.02 0.02 0.03 0.03 0.02 0.03 0.02 0.02 0.03 0.04 0.06 0.06 0.06 0.05 0.04 0.05 0.06 0.07 0.07 0.07 0.06 0.06 0.07 0.08 0.09 0.09 0.08 0.06 0.05 0.05 0.09 0.13
0.00 0.00 0.00 0.00 0.00 0.01 0.02 0.02 0.02 0.02 0.02 0.02 0.03 0.03 0.03 0.02 0.03 0.02 0.02 0.02 0.03 0.04 0.05 0.06 0.06 0.05 0.05 0.05 0.07 0.08 0.08 0.07 0.06 0.07 0.09 0.08 0.08 0.08 0.07 0.06 0.06 0.07 0.09
0.00 0.00 0.00 0.00 0.00 0.01 0.03 0.03 0.02 0.02 0.02 0.02 0.03 0.03 0.02 0.01 0.01 0.01 0.01 0.02 0.02 0.03 0.05 0.05 0.05 0.05 0.05 0.04 0.04 0.05 0.07 0.08 0.08 0.08 0.07 0.07 0.05 0.05 0.05 0.05 0.05 0.05 0.06
0.00 0.00 0.00 0.00 0.00 0.00 0.02 0.02 0.02 0.02 0.02 0.02 0.03 0.03 0.02 0.02 0.02 0.01 0.02 0.02 0.02 0.03 0.04 0.05 0.06 0.06 0.05 0.05 0.04 0.04 0.04 0.06 0.07 0.07 0.05 0.05 0.04 0.03 0.04 0.04 0.05 0.05 0.05
0.00 0.00 0.00 0.00 0.00 0.00 0.00 0.02 0.02 0.02 0.02 0.02 0.02 0.02 0.02 0.02 0.02 0.03 0.04 0.03 0.02 0.02 0.03 0.04 0.05 0.06 0.06 0.05 0.05 0.05 0.04 0.04 0.04 0.05 0.06 0.06 0.05 0.04 0.04 0.03 0.03 0.04 0.04
0.01 0.01 0.01 0.00 0.00 0.00 0.00 0.01 0.02 0.03 0.02 0.02 0.02 0.01 0.01 0.01 0.01 0.02 0.02 0.04 0.04 0.02 0.03 0.04 0.05 0.05 0.05 0.05 0.06 0.07 0.07 0.07 0.07 0.06 0.05 0.05 0.05 0.05 0.05 0.05 0.05 0.04 0.03
0.01 0.02 0.01 0.01 0.01 0.01 0.00 0.01 0.01 0.02 0.02 0.02 0.02 0.01 0.01 0.01 0.01 0.01 0.02 0.02 0.03 0.03 0.03 0.04 0.05 0.06 0.06 0.05 0.06 0.07 0.09 0.09 0.10 0.09 0.07 0.06 0.04 0.04 0.03 0.03 0.04 0.04 0.03
0.01 0.02 0.03 0.02 0.02 0.02 0.01 0.01 0.01 0.01 0.01 0.02 0.02 0.01 0.01 0.02 0.02 0.01 0.02 0.02 0.04 0.03 0.03 0.03 0.05 0.05 0.06 0.06 0.06 0.06 0.07 0.08 0.09 0.08 0.06 0.06 0.05 0.04 0.03 0.02 0.03 0.03 0.03
0.02 0.03 0.04 0.04 0.04 0.04 0.03 0.02 0.01 0.01 0.01 0.01 0.02 0.02 0.02 0.02 0.02 0.02 0.01 0.02 0.02 0.02 0.03 0.03 0.04 0.06 0.06 0.06 0.06 0.06 0.07 0.07 0.07 0.07 0.06 0.05 0.04 0.03 0.03 0.02 0.03 0.03 0.03
0.04 0.04 0.06 0.06 0.06 0.04 0.03 0.02 0.01 0.01 0.01 0.01 0.01 0.01 0.02 0.02 0.02 0.01 0.02 0.01 0.01 0.02 0.02 0.03 0.03 0.05 0.06 0.06 0.05 0.05 0.08 0.09 0.08 0.08 0.07 0.06 0.04 0.03 0.03 0.03 0.03 0.03 0.03
0.04 0.05 0.05 0.05 0.04 0.03 0.02 0.02 0.02 0.01 0.01 0.01 0.01 0.01 0.01 0.02 0.02 0.01 0.02 0.03 0.03 0.02 0.02 0.03 0.02 0.03 0.04 0.05 0.05 0.06 0.07 0.08 0.08 0.08 0.08 0.07 0.06 0.05 0.04 0.04 0.04 0.03 0.03
0.03 0.04 0.04 0.04 0.03 0.02 0.01 0.01 0.01 0.01 0.01 0.01 0.01 0.01 0.01 0.01 0.01 0.02 0.02 0.02 0.04 0.03 0.02 0.02 0.02 0.02 0.03 0.03 0.03 0.04 0.04 0.05 0.06 0.07 0.08 0.08 0.07 0.07 0.06 0.06 0.05 0.04 0.04
0.02 0.03 0.03 0.03 0.02 0.02 0.02 0.01 0.01 0.02 0.01 0.01 0.01 0.01 0.01 0.01 0.01 0.01 0.01 0.01 0.01 0.01 0.01 0.01 0.02 0.02 0.02 0.02 0.02 0.02 0.02 0.03 0.03 0.04 0.05 0.06 0.07 0.06 0.06 0.06 0.06 0.05 0.06
0.02 0.03 0.03 0.03 0.02 0.01 0.01 0.01 0.02 0.02 0.02 0.01 0.01 0.01 0.01 0.01 0.01 0.02 0.01 0.01 0.01 0.02 0.01 0.01 0.01 0.01 0.01 0.02 0.02 0.02 0.02 0.02 0.03 0.03 0.03 0.03 0.05 0.06 0.06 0.06 0.06 0.07 0.08
0.03 0.02 0.02 0.02 0.02 0.01 0.01 0.01 0.01 0.02 0.02 0.02 0.02 0.02 0.01 0.01 0.01 0.01 0.01 0.02 0.01 0.01 0.01 0.01 0.00 0.00 0.01 0.02 0.03 0.02 0.03 0.03 0.03 0.03 0.03 0.03 0.03 0.04 0.05 0.05 0.05 0.06 0.08
0.03 0.02 0.02 0.02 0.02 0.02 0.01 0.01 0.01 0.01 0.01 0.01 0.02 0.02 0.02 0.01 0.00 0.01 0.01 0.02 0.02 0.01 0.01 0.01 0.00 0.01 0.01 0.01 0.02 0.02 0.02 0.02 0.03 0.04 0.04 0.03 0.03 0.04 0.04 0.05 0.05 0.05 0.06
0.03 0.02 0.02 0.01 0.01 0.01 0.01 0.01 0.00 0.00 0.00 0.00 0.01 0.01 0.02 0.01 0.01 0.01 0.01 0.01 0.01 0.01 0.01 0.01 0.01 0.01 0.01 0.01 0.01 0.02 0.01 0.02 0.02 0.03 0.03 0.03 0.02 0.03 0.04 0.04 0.04 0.04 0.04
0.03 0.03 0.02 0.02 0.02 0.01 0.01 0.02 0.01 0.00 0.00 0.00 0.00 0.01 0.02 0.02 0.01 0.01 0.01 0.01 0.01 0.01 0.01 0.01 0.01 0.01 0.01 0.02 0.01 0.02 0.02 0.02 0.02 0.02 0.02 0.02 0.02 0.03 0.03 0.04 0.04 0.03 0.04
0.03 0.03 0.02 0.02 0.02 0.02 0.02 0.02 0.01 0.01 0.01 0.01 0.01 0.01 0.02 0.02 0.02 0.02 0.02 0.01 0.01 0.01 0.01 0.01 0.02 0.02 0.01 0.02 0.02 0.02 0.03 0.02 0.02 0.02 0.02 0.02 0.02 0.03 0.03 0.03 0.03 0.03 0.03
0.03 0.02 0.02 0.02 0.02 0.02 0.02 0.02 0.02 0.02 0.01 0.01 0.02 0.02 0.02 0.02 0.02 0.02 0.02 0.02 0.02 0.01 0.01 0.01 0.02 0.03 0.02 0.02 0.03 0.03 0.03 0.03 0.03 0.03 0.03 0.03 0.03 0.03 0.03 0.03 0.03 0.03 0.02
0.02 0.02 0.02 0.02 0.02 0.02 0.03 0.03 0.03 0.03 0.02 0.02 0.03 0.03 0.03 0.03 0.03 0.03 0.03 0.03 0.03 0.03 0.02 0.02 0.02 0.02 0.03 0.03 0.03 0.03 0.04 0.03 0.03 0.03 0.03 0.03 0.03 0.03 0.03 0.03 0.03 0.03 0.02
0.02 0.02 0.02 0.02 0.02 0.03 0.03 0.04 0.04 0.04 0.03 0.02 0.02 0.02 0.02 0.03 0.04 0.04 0.04 0.04 0.04 0.04 0.04 0.03 0.03 0.03 0.03 0.03 0.03 0.03 0.04 0.04 0.03 0.03 0.03 0.03 0.03 0.04 0.04 0.03 0.03 0.02 0.02
0.02 0.02 0.02 0.02 0.03 0.03 0.03 0.04 0.04 0.04 0.04 0.03 0.02 0.02 0.02 0.02 0.03 0.03 0.04 0.04 0.04 0.04 0.04 0.04 0.04 0.04 0.04 0.04 0.04 0.03 0.03 0.03 0.04 0.04 0.03 0.02 0.02 0.02 0.02 0.03 0.03 0.02 0.02
0.02 0.02 0.02 0.03 0.03 0.03 0.03 0.04 0.04 0.04 0.03 0.03 0.03 0.03 0.02 0.02 0.02 0.02 0.03 0.04 0.04 0.04 0.04 0.04 0.04 0.04 0.04 0.03 0.03 0.03 0.02 0.02 0.02 0.03 0.02 0.01 0.01 0.01 0.02 0.02 0.02 0.02 0.02
0.01 0.02 0.02 0.03 0.03 0.03 0.04 0.05 0.05 0.05 0.04 0.04 0.03 0.03 0.02 0.02 0.02 0.02 0.02 0.03 0.04 0.04 0.04 0.04 0.04 0.03 0.03 0.03 0.03 0.02 0.02 0.02 0.03 0.03 0.02 0.02 0.01 0.01 0.01 0.02 0.02 0.02 0.02
MSLP
1017.34 1017.15 1017.15 1017.32 1017.61 1017.98 1018.36 1018.69 1018.92 1019.06 1019.12 1019.12 1019.11 1019.10 1019.14 1019.21 1019.31 1019.40 1019.44 1019.42 1019.31 1019.12 1018.84 1018.51 1018.16 1017.82 1017.52 1017.28 1017.10 1016.98 1016.93 1016.92 1016.95 1017.00 1017.05 1017.09 1017.10 1017.08 1017.00 1016.87 1016.71 1016.54 1016.36
1018.54 1018.22 1018.06 1018.06 1018.19 1018.40 1018.63 1018.83 1018.98 1019.05 1019.06 1019.05 1019.02 1019.03 1019.08 1019.17 1019.29 1019.40 1019.48 1019.49 1019.42 1019.26 1019.01 1018.71 1018.37 1018.03 1017.72 1017.46 1017.27 1017.14 1017.08 1017.08 1017.12 1017.19 1017.27 1017.33 1017.36 1017.34 1017.27 1017.13 1016.96 1016.76 1016.56
1020.08 1019.63 1019.31 1019.14 1019.08 1019.10 1019.15 1019.20 1019.21 1019.18 1019.12 1019.04 1018.98 1018.96 1018.99 1019.07 1019.19 1019.31 1019.41 1019.46 1019.43 1019.32 1019.13 1018.87 1018.57 1018.26 1017.95 1017.69 1017.47 1017.32 1017.24 1017.22 1017.26 1017.34 1017.42 1017.50 1017.55 1017.55 1017.49 1017.37 1017.20 1017.01 1016.82
1021.83 1021.27 1020.81 1020.46 1020.21 1020.03 1019.90 1019.77 1019.63 1019.47 1019.30 1019.13 1018.99 1018.90 1018.88 1018.91 1018.99 1019.10 1019.21 1019.28 1019.31 1019.26 1019.15 1018.97 1018.73 1018.46 1018.19 1017.93 1017.70 1017.53 1017.42 1017.37 1017.38 1017.43 1017.51 1017.59 1017.65 1017.66 1017.62 1017.52 1017.38 1017.22 1017.07
1023.62 1022.98 1022.40 1021.89 1021.47 1021.10 1020.79 1020.49 1020.19 1019.89 1019.59 1019.31 1019.07 1018.88 1018.76 1018.71 1018.72 1018.79 1018.88 1018.97 1019.04 1019.07 1019.05 1018.96 1018.82 1018.63 1018.41 1018.18 1017.95 1017.76 1017.61 1017.52 1017.49 1017.50 1017.54 1017.60 1017.64 1017.66 1017.63 1017.57 1017.46 1017.34 1017.23
1025.29 1024.59 1023.92 1023.29 1022.71 1022.19 1021.72 1021.26 1020.83 1020.39 1019.97 1019.57 1019.20 1018.89 1018.65 1018.49 1018.40 1018.40 1018.45 1018.54 1018.65 1018.74 1018.81 1018.83 1018.80 1018.71 1018.56 1018.38 1018.18 1017.98 1017.81 1017.67 1017.58 1017.53 1017.52 1017.54 1017.55 1017.56 1017.54 1017.49 1017.42 1017.35 1017.29
1026.72 1025.98 1025.24 1024.51 1023.83 1023.19 1022.59 1022.02 1021.46 1020.92 1020.39 1019.87 1019.38 1018.94 1018.57 1018.28 1018.08 1017.98 1017.97 1018.03 1018.15 1018.30 1018.45 1018.57 1018.65 1018.67 1018.62 1018.51 1018.35 1018.17 1017.97 1017.80 1017.65 1017.54 1017.47 1017.43 1017.40 1017.38 1017.36 1017.32 1017.28 1017.25 1017.24
1027.83 1027.07 1026.28 1025.49 1024.73 1024.01 1023.33 1022.68 1022.05 1021.43 1020.81 1020.20 1019.61 1019.05 1018.55 1018.12 1017.80 1017.58 1017.48 1017.49 1017.60 1017.77 1017.98 1018.19 1018.37 1018.50 1018.54 1018.52 1018.42 1018.26 1018.07 1017.87 1017.68 1017.52 1017.38 1017.29 1017.21 1017.16 1017.12 1017.09 1017.08 1017.08 1017.11
1028.63 1027.84 1027.02 1026.20 1025.41 1024.64 1023.92 1023.23 1022.56 1021.89 1021.22 1020.55 1019.88 1019.22 1018.60 1018.05 1017.59 1017.26 1017.05 1016.98 1017.05 1017.21 1017.44 1017.71 1017.97 1018.18 1018.32 1018.38 1018.34 1018.23 1018.06 1017.86 1017.65 1017.45 1017.27 1017.12 1017.01 1016.92 1016.86 1016.84 1016.84 1016.87 1016.94
1029.15 1028.36 1027.53 1026.70 1025.89 1025.11 1024.38 1023.67 1022.99 1022.31 1021.62 1020.91 1020.18 1019.45 1018.74 1018.08 1017.50 1017.04 1016.73 1016.56 1016.55 1016.67 1016.89 1017.17 1017.47 1017.75 1017.96 1018.09 1018.13 1018.07 1017.94 1017.77 1017.55 1017.34 1017.13 1016.95 1016.80 1016.69 1016.62 1016.59 1016.60 1016.66 1016.76
1029.51 1028.72 1027.89 1027.06 1026.26 1025.49 1024.76 1024.06 1023.39 1022.71 1022.01 1021.29 1020.53 1019.74 1018.96 1018.21 1017.54 1016.97 1016.54 1016.26 1016.16 1016.20 1016.37 1016.63 1016.94 1017.24 1017.50 1017.68 1017.79 1017.80 1017.72 1017.58 1017.40 1017.19 1016.98 1016.78 1016.61 1016.48 1016.40 1016.37 1016.39 1016.47 1016.60
1029.83 1029.04 1028.22 1027.41 1026.62 1025.86 1025.14 1024.46 1023.79 1023.11 1022.42 1021.68 1020.90 1020.09 1019.26 1018.44 1017.68 1017.01 1016.48 1016.10 1015.89 1015.84 1015.93 1016.14 1016.41 1016.71 1016.99 1017.22 1017.38 1017.45 1017.44 1017.35 1017.21 1017.02 1016.82 1016.63 1016.45 1016.31 1016.22 1016.18 1016.21 1016.30 1016.45
1030.18 1029.42 1028.62 1027.82 1027.04 1026.30 1025.58 1024.89 1024.22 1023.54 1022.83 1022.08 1021.29 1020.45 1019.58 1018.72 1017.90 1017.15 1016.53 1016.05 1015.74 1015.59 1015.59 1015.73 1015.95 1016.22 1016.50 1016.75 1016.95 1017.08 1017.13 1017.10 1017.01 1016.86 1016.69 1016.50 1016.32 1016.18 1016.07 1016.03 1016.05 1016.14 1016.30
1030.64 1029.90 1029.12 1028.34 1027.57 1026.82 1026.09 1025.38 1024.68 1023.97 1023.24 1022.47 1021.65 1020.78 1019.89 1018.99 1018.13 1017.34 1016.65 1016.09 1015.69 1015.44 1015.35 1015.40 1015.56 1015.78 1016.04 1016.30 1016.53 1016.71 1016.82 1016.85 1016.82 1016.72 1016.58 1016.41 1016.23 1016.08 1015.96 1015.90 1015.91 1015.99 1016.14
1031.18 1030.46 1029.71 1028.94 1028.17 1027.40 1026.64 1025.89 1025.15 1024.39 1023.61 1022.79 1021.94 1021.04 1020.13 1019.21 1018.32 1017.50 1016.76 1016.15 1015.67 1015.35 1015.18 1015.15 1015.23 1015.41 1015.64 1015.89 1016.14 1016.35 1016.52 1016.61 1016.63 1016.59 1016.48 1016.34 1016.17 1016.01 1015.88 1015.80 1015.78 1015.85 1015.99
1031.76 1031.07 1030.33 1029.56 1028.78 1027.98 1027.18 1026.38 1025.57 1024.74 1023.89 1023.02 1022.12 1021.19 1020.26 1019.33 1018.42 1017.58 1016.82 1016.17 1015.64 1015.25 1015.01 1014.90 1014.92 1015.04 1015.23 1015.47 1015.73 1015.98 1016.19 1016.34 1016.42 1016.43 1016.38 1016.26 1016.12 1015.96 1015.82 1015.72 1015.69 1015.73 1015.85
1032.30 1031.62 1030.88 1030.11 1029.31 1028.48 1027.63 1026.77 1025.89 1024.99 1024.07 1023.14 1022.19 1021.22 1020.26 1019.32 1018.41 1017.56 1016.78 1016.10 1015.54 1015.10 1014.79 1014.62 1014.57 1014.62 1014.78 1014.99 1015.25 1015.52 1015.78 1015.98 1016.13 1016.21 1016.21 1016.15 1016.04 1015.91 1015.78 1015.68 1015.63 1015.66 1015.77
1032.71 1032.03 1031.29 1030.51 1029.69 1028.84 1027.95 1027.03 1026.09 1025.13 1024.15 1023.15 1022.15 1021.15 1020.17 1019.21 1018.30 1017.44 1016.65 1015.95 1015.35 1014.86 1014.49 1014.24 1014.12 1014.11 1014.21 1014.40 1014.65 1014.93 1015.22 1015.48 1015.70 1015.86 1015.94 1015.95 1015.90 1015.82 1015.73 1015.66 1015.63 1015.66 1015.77
1032.95 1032.25 1031.51 1030.72 1029.89 1029.02 1028.12 1027.17 1026.19 1025.18 1024.16 1023.11 1022.07 1021.04 1020.03 1019.06 1018.13 1017.26 1016.45 1015.72 1015.08 1014.53 1014.09 1013.77 1013.57 1013.49 1013.52 1013.66 1013.88 1014.17 1014.49 1014.81 1015.10 1015.34 1015.52 1015.63 1015.68 1015.69 1015.67 1015.66 1015.68 1015.74 1015.87
1033.00 1032.29 1031.54 1030.75 1029.93 1029.07 1028.17 1027.22 1026.23 1025.21 1024.16 1023.09 1022.02 1020.97 1019.94 1018.95 1018.00 1017.11 1016.27 1015.50 1014.81 1014.19 1013.67 1013.25 1012.95 1012.78 1012.73 1012.81 1012.99 1013.26 1013.59 1013.96 1014.33 1014.66 1014.95 1015.18 1015.36 1015.48 1015.58 1015.66 1015.76 1015.89 1016.06
1032.90 1032.18 1031.44 1030.67 1029.87 1029.05 1028.17 1027.26 1026.29 1025.27 1024.23 1023.16 1022.08 1021.02 1019.97 1018.96 1017.99 1017.07 1016.19 1015.37 1014.61 1013.91 1013.30 1012.78 1012.37 1012.09 1011.94 1011.93 1012.05 1012.29 1012.62 1013.02 1013.44 1013.87 1014.27 1014.63 1014.94 1015.20 1015.43 1015.64 1015.85 1016.07 1016.32
1032.74 1032.01 1031.29 1030.55 1029.80 1029.02 1028.21 1027.34 1026.42 1025.44 1024.42 1023.37 1022.31 1021.24 1020.19 1019.16 1018.17 1017.21 1016.29 1015.41 1014.58 1013.79 1013.08 1012.45 1011.92 1011.52 1011.26 1011.15 1011.20 1011.38 1011.69 1012.09 1012.55 1013.05 1013.54 1014.02 1014.46 1014.86 1015.23 1015.57 1015.91 1016.24 1016.59
1032.58 1031.87 1031.17 1030.48 1029.79 1029.08 1028.33 1027.53 1026.66 1025.74 1024.77 1023.75 1022.70 1021.65 1020.60 1019.57 1018.56 1017.57 1016.61 1015.68 1014.78 1013.92 1013.11 1012.38 1011.74 1011.22 1010.85 1010.63 1010.57 1010.68 1010.94 1011.32 1011.79 1012.32 1012.88 1013.45 1013.99 1014.51 1015.00 1015.47 1015.92 1016.37 1016.81
1032.48 1031.81 1031.15 1030.52 1029.89 1029.24 1028.55 1027.82 1027.02 1026.15 1025.22 1024.25 1023.24 1022.21 1021.17 1020.15 1019.14 1018.14 1017.17 1016.20 1015.26 1014.34 1013.46 1012.64 1011.90 1011.28 1010.79 1010.47 1010.31 1010.33 1010.52 1010.85 1011.29 1011.82 1012.40 1013.01 1013.61 1014.21 1014.79 1015.35 1015.90 1016.43 1016.97
1032.49 1031.85 1031.24 1030.66 1030.08 1029.49 1028.86 1028.18 1027.44 1026.62 1025.74 1024.81 1023.84 1022.84 1021.84 1020.84 1019.85 1018.87 1017.90 1016.93 1015.97 1015.03 1014.11 1013.24 1012.44 1011.74 1011.17 1010.75 1010.50 1010.43 1010.52 1010.78 1011.16 1011.64 1012.20 1012.79 1013.41 1014.03 1014.65 1015.26 1015.86 1016.46 1017.05
1032.57 1031.98 1031.42 1030.88 1030.34 1029.78 1029.19 1028.55 1027.84 1027.06 1026.22 1025.33 1024.41 1023.46 1022.51 1021.55 1020.61 1019.67 1018.74 1017.80 1016.87 1015.94 1015.02 1014.14 1013.31 1012.58 1011.95 1011.47 1011.15 1010.99 1011.00 1011.16 1011.46 1011.86 1012.35 1012.89 1013.46 1014.06 1014.65 1015.26 1015.86 1016.47 1017.09
Thickness
5585 5586 5587 5588 5588 5588 5588 5588 5588 5589 5589 5588 5588 5588 5588 5588 5589 5589 5590 5591 5592 5593 5594 5595 5596 5597 5597 5598 5599 5599 5599 5598 5598 5596 5595 5595 5597 5599 5600 5602 5604 5605 5605
5573 5576 5578 5579 5580 5580 5580 5581 5581 5582 5582 5583 5582 5582 5582 5581 5582 5582 5582 5583 5585 5586 5587 5587 5588 5589 5589 5589 5590 5591 5590 5589 5590 5589 5587 5586 5587 5589 5591 5592 5594 5595 5595
5565 5567 5569 5569 5570 5572 5573 5575 5574 5575 5575 5575 5575 5574 5573 5573 5573 5573 5574 5576 5577 5579 5580 5580 5582 5582 5582 5582 5582 5583 5584 5582 5581 5582 5581 5579 5580 5579 5580 5582 5583 5585 5585
5555 5557 5559 5560 5562 5563 5565 5566 5566 5567 5567 5567 5567 5567 5566 5565 5566 5566 5567 5568 5569 5571 5573 5573 5574 5574 5574 5574 5574 5575 5576 5575 5574 5572 5572 5573 5573 5571 5571 5571 5572 5573 5575
5544 5546 5549 5551 5553 5555 5556 5557 5558 5558 5558 5559 5559 5559 5558 5557 5557 5558 5559 5560 5561 5563 5565 5566 5566 5566 5566 5566 5566 5567 5567 5568 5567 5566 5565 5563 5563 5563 5563 5563 5562 5562 5564
5534 5536 5539 5541 5542 5544 5546 5547 5548 5548 5549 5550 5551 5551 5550 5549 5550 5550 5551 5552 5553 5555 5556 5557 5557 5557 5557 5558 5558 5559 5559 5559 5559 5559 5559 5557 5556 5556 5554 5553 5553 5552 5554
5522 5525 5527 5529 5531 5533 5535 5536 5538 5538 5539 5540 5541 5542 5542 5542 5542 5543 5543 5544 5545 5546 5547 5548 5549 5549 5549 5550 5550 5551 5551 5551 5551 5551 5551 5550 5550 5550 5548 5545 5542 5541 5542
5510 5513 5515 5517 5520 5522 5524 5526 5527 5528 5529 5530 5531 5532 5533 5533 5534 5535 5536 5536 5538 5539 5539 5540 5541 5541 5542 5542 5543 5543 5544 5544 5544 5543 5542 5541 5540 5540 5539 5538 5534 5532 5531
5495 5499 5502 5506 5508 5511 5513 5515 5517 5517 5518 5520 5521 5522 5523 5524 5525 5526 5527 5528 5529 5530 5531 5531 5532 5533 5533 5534 5535 5535 5535 5535 5535 5534 5533 5533 5532 5531 5530 5529 5527 5526 5524
5481 5486 5489 5493 5496 5499 5502 5504 5506 5508 5508 5509 5511 5513 5513 5514 5515 5517 5518 5519 5520 5521 5522 5522 5523 5524 5524 5525 5526 5526 5526 5526 5526 5526 5525 5524 5523 5523 5521 5520 5518 5518 5517
5466 5471 5476 5479 5483 5486 5489 5492 5494 5496 5498 5499 5500 5502 5503 5505 5506 5507 5509 5510 5512 5513 5513 5514 5514 5515 5515 5515 5516 5517 5517 5517 5517 5517 5516 5515 5514 5513 5512 5511 5509 5508 5507
5451 5456 5461 5465 5470 5473 5476 5479 5482 5484 5486 5488 5489 5491 5492 5494 5496 5498 5499 5501 5502 5504 5505 5505 5505 5506 5506 5506 5506 5507 5508 5507 5507 5507 5507 5506 5505 5504 5503 5502 5501 5500 5499
5439 5442 5447 5452 5456 5460 5463 5467 5469 5472 5475 5476 5478 5480 5482 5484 5486 5488 5490 5492 5493 5494 5495 5496 5496 5496 5497 5497 5497 5498 5498 5498 5498 5498 5498 5497 5496 5495 5494 5493 5493 5491 5490
5425 5429 5433 5438 5443 5446 5450 5454 5457 5460 5463 5465 5467 5469 5471 5473 5476 5478 5480 5482 5483 5484 5485 5486 5487 5487 5488 5488 5488 5488 5488 5488 5488 5488 5489 5488 5488 5487 5486 5485 5484 5482 5481
5412 5416 5420 5424 5428 5433 5437 5441 5444 5447 5450 5453 5455 5458 5460 5463 5465 5468 5470 5472 5473 5474 5475 5475 5476 5477 5478 5479 5479 5479 5479 5479 5479 5479 5479 5479 5479 5479 5478 5477 5476 5474 5472
5397 5402 5406 5410 5415 5419 5424 5428 5432 5435 5438 5441 5443 5446 5449 5452 5454 5457 5459 5460 5461 5463 5464 5464 5465 5467 5468 5470 5470 5470 5470 5470 5470 5470 5470 5470 5470 5469 5469 5469 5468 5467 5465
5381 5387 5392 5396 5401 5405 5410 5415 5419 5423 5426 5429 5432 5434 5437 5440 5443 5446 5447 5449 5450 5451 5452 5453 5454 5456 5458 5459 5460 5461 5460 5460 5461 5461 5461 5461 5461 5460 5459 5459 5458 5457 5457
5368 5374 5379 5385 5389 5393 5397 5402 5406 5410 5414 5417 5420 5422 5425 5428 5431 5434 5436 5438 5439 5440 5441 5442 5444 5445 5447 5449 5450 5451 5450 5450 5451 5451 5451 5451 5450 5450 5449 5449 5447 5447 5446
5357 5363 5368 5373 5378 5382 5386 5390 5395 5398 5402 5405 5408 5411 5414 5417 5420 5422 5425 5426 5427 5429 5430 5431 5433 5434 5436 5438 5439 5440 5440 5440 5440 5440 5441 5441 5440 5441 5440 5439 5437 5436 5436
5346 5352 5357 5363 5368 5372 5376 5380 5384 5387 5391 5394 5397 5400 5402 5405 5409 5411 5414 5415 5417 5418 5419 5420 5422 5424 5426 5429 5430 5430 5430 5430 5430 5430 5430 5430 5430 5430 5430 5428 5427 5426 5425
5335 5340 5346 5351 5356 5361 5365 5369 5373 5377 5380 5383 5386 5389 5391 5394 5397 5400 5402 5404 5405 5407 5408 5409 5411 5413 5416 5419 5420 5421 5420 5420 5420 5420 5420 5419 5420 5420 5419 5418 5418 5417 5416
5324 5329 5334 5340 5345 5350 5355 5359 5363 5367 5370 5373 5375 5377 5380 5384 5387 5389 5391 5393 5394 5395 5397 5399 5400 5403 5405 5408 5410 5411 5412 5412 5411 5410 5410 5409 5409 5409 5408 5407 5407 5407 5405
5311 5317 5322 5329 5334 5338 5343 5347 5352 5356 5359 5362 5364 5367 5370 5373 5376 5378 5380 5382 5383 5384 5386 5388 5390 5392 5394 5397 5399 5401 5402 5402 5401 5400 5400 5399 5398 5397 5396 5396 5396 5395 5393
5300 5305 5311 5317 5322 5327 5331 5335 5340 5344 5348 5351 5354 5356 5359 5362 5365 5368 5370 5372 5373 5375 5377 5379 5381 5382 5384 5386 5388 5389 5390 5390 5389 5389 5388 5388 5387 5385 5384 5384 5383 5382 5381
5289 5293 5298 5304 5310 5315 5320 5324 5328 5333 5336 5340 5343 5346 5349 5352 5355 5358 5360 5363 5365 5367 5369 5371 5372 5374 5375 5377 5379 5379 5379 5379 5379 5378 5377 5375 5374 5373 5371 5371 5370 5369 5368
5278 5283 5288 5293 5298 5303 5309 5313 5318 5322 5326 5330 5333 5336 5339 5342 5345 5347 5350 5353 5356 5359 5362 5363 5364 5365 5367 5369 5370 5370 5370 5370 5369 5368 5365 5364 5362 5361 5360 5359 5358 5357 5356